星链-36521(STARLINK-36521)

导读 | 豆包AI

STARLINK-36521是美国太空探索技术公司SpaceX星链星座中的一颗卫星,于2026年1月18日成功发射。星链项目旨在构建全球卫星互联网星座,为全球偏远地区、海洋等网络覆盖薄弱区域提供高速宽带接入服务,该卫星加入星座后将进一步扩展星链网络的覆盖范围与服务能力。

Basic Information
目录编号:
67507
目录名称:
STARLINK-36521
国际标识:
2026-012Q
轨道中心:
EARTH
卫星名称:
星链-36521
卫星全名:
星链-36521(STARLINK-36521)
卫星状态:
在轨 (已飞行76 天)
发射日期:
2026-01-18 UTC
国别 :
美国 (US)
星等 :
--
Orbit Information
数据来源 国际轨道数据 AOE轨道数据
星历时间 2026-04-03T20:26:36+0800
12小时前
查看轨道信息
2026-03-31T09:00:00+0800
4天前
查看轨道信息
半长轴 6861.229km 6861.21km
偏心率 0.0001245 0.000001
轨道倾角 42.998° 42.999°
近地点辐角 250.793° 172.562°
升交点赤经 173.780° 193.416°
平近点角 109.278° 125.092°
近地点 482.237km 483.066km
远地点 483.947km 483.08km
周期 94.268分钟 94.267分钟
每日圈数 15.27566 15.275721
Detailed Information
固有亮度:
5
最大亮度:
2.5
卫星平台:
Starlink V1.0
覆盖范围:
全球
运营商:
太空探索技术公司
运营商所在国:
美国
制造商(研发单位):
太空探索技术公司
制造商所在国:
美国
使用方式:
暂无
Satellite Introduction
Starlink 计划是 SpaceX 推出的全球卫星互联网项目,通过发射低轨道卫星,为全球尤其是偏远地区提供高速、低延迟的互联网服务。自 2019 年起,Starlink 已部署数千颗卫星,旨在缩小全球数字鸿沟,推动互联网普及。该项目还为军事、航空等行业提供通信支持,带来广泛经济效益。
2D Orbit Map
3D Orbit Map
Orbit Altitude Analysis Chart
Orbit Inclination Analysis Chart
Orbit Comprehensive Analysis Chart
View Comprehensive Chart